Regional Weather Roundup
Issued by NWS

Home | Current Version | Previous Version | Text Only | Print | Product List | Glossary On
Versions: 1 2 3 4 5 6 7 8 9 10 11 12 13 14 15 16 17 18 19 20 21 22 23 24 25 26 27 28 29 30 31 32 33 34 35 36 37 38 39 40 41 42 43 44 45 46 47 48 49 50
000
ASUS44 KMEG 161410
RWRTN
TENNESSEE HOURLY STATE WEATHER ROUNDUP
NATIONAL WEATHER SERVICE MEMPHIS TN
900 AM CDT WED APR 16 2014

TNZ002-004-019-021-049-052-054-088>092-161500-
WEST TENNESSEE

CITY           SKY/WX    TMP DP  RH WIND       PRES   REMARKS
MEMPHIS INTL   MOSUNNY   45  24  43 SE9       30.29S
NWS MEMPHIS      N/A     43 N/A N/A MISG        N/A
JACKSON        SUNNY     42  26  53 E7        30.31S
DYERSBURG      SUNNY     43  21  42 SE14      30.33S
UNION CITY     SUNNY     39  25  56 VRB6      30.31S WCI  35
PARIS          SUNNY     39  23  53 E14       30.32R WCI  31
LEXINGTON      SUNNY     39  23  52 E12       30.30S WCI  32
SAVANNAH       SUNNY     41  25  53 E6        30.31
$$

TNZ008-025-027-028-033-062-065-066-161500-
NORTH MIDDLE TENNESSEE

CITY           SKY/WX    TMP DP  RH WIND       PRES   REMARKS
NASHVILLE      MOSUNNY   41  22  46 E14       30.33S
DICKSON        SUNNY     37  21  52 E10       30.30S WCI  30
PORTLAND       MOSUNNY   37  21  52 E13       30.32R WCI  29
CLARKSVILLE    SUNNY     40  24  53 E13       30.34R WCI  32
SMYRNA         SUNNY     41  22  47 E14       30.34S
MURFREESBORO   SUNNY     39  24  55 E8        30.32R WCI  33
LIVINGSTON     SUNNY     34  21  59 E12       30.30S WCI  25
GALLATIN       SUNNY     39  23  53 E10       30.34R WCI  32
CROSSVILLE     SUNNY     36  20  52 E9        30.27S WCI  29
$$

TNZ061-075-076-078-094-096-097-161500-
SOUTH MIDDLE TENNESSEE

CITY           SKY/WX    TMP DP  RH WIND       PRES   REMARKS
LEWISBURG      SUNNY     39  24  55 VRB6      30.31R WCI  35
FAYETTEVILLE   SUNNY     38  22  52 E12       30.28R WCI  30
TULLAHOMA      SUNNY     37  19  48 E10       30.29R WCI  30
WINCHESTER     SUNNY     39  21  48 E9        30.29S WCI  33
MCMINNVILLE    SUNNY     37  25  60 NE8       30.30R WCI  31
COLUMBIA       SUNNY     39  28  65 E15       30.30R WCI  31
SHELBYVILLE    SUNNY     39  23  52 E14       30.31R WCI  31
$$

TNZ017-018-042-046-047-161500-
NORTHEAST TENNESSEE

CITY           SKY/WX    TMP DP  RH WIND       PRES   REMARKS
TRI CITIES     SUNNY     35  19  52 E7        30.36R WCI  29
ELIZABETHTON   SUNNY     36  18  48 CALM      30.35R
$$

TNZ012-013-036-069-073-074-161500-
CENTRAL EAST TENNESSEE

CITY           SKY/WX    TMP DP  RH WIND       PRES   REMARKS
KNOXVILLE      SUNNY     40  25  55 NE13G23   30.32R WCI  32
OAK RIDGE      SUNNY     41  22  46 VRB7      30.35R
$$

TNZ083-085-099-161500-
SOUTHEAST TENNESSEE

CITY           SKY/WX    TMP DP  RH WIND       PRES   REMARKS
CHATTANOOGA    SUNNY     43  23  45 NE15      30.31S
$$

SKY/WX REPORTED AS FAIR MEANS FEW OR NO CLOUDS BELOW
12 THOUSAND FEET.




USA.gov is the U.S. government's official web portal to all federal, state and local government web resources and services.